Anchorage Merrill, AK

5:36 PM AKDT on May 22, 2018 (GMT -0800)
Merrill

Weather History for PAMR - May, 2014

Change the Weather History Date:

Wednesday, May 14, 2014

  Actual Average Record
Temperature  
Mean Temperature 58 °F -  
Max Temperature 73 °F 55 °F 73 °F (2014)
Min Temperature 44 °F 38 °F 33 °F (2008)
Degree Days  
Heating Degree Days 7    
Growing Degree Days 8 (Base 50)    
Moisture  
Dew Point 23 °F    
Average Humidity 29    
Maximum Humidity 55    
Minimum Humidity 12    
Precipitation  
Precipitation 0.00 in - - ()
Sea Level Pressure  
Sea Level Pressure 30.32 in    
Wind  
Wind Speed 5 mph (North)    
Max Wind Speed 14 mph    
Max Gust Speed 20 mph    
Visibility 10 miles    
Events      
Averages and records for this station are not official NWS values.
T = Trace of Precipitation, MM = Missing Value Source: NWS Daily Summary

Daily Weather History Graph

Daily Weather History Graph

Search for Another Location

Airport or City:

Astronomy

May. 14, 2014 Rise Set
Actual Time 5:14 AM AKDT 10:38 PM AKDT
Civil Twilight 4:05 AM AKDT 11:49 PM AKDT
Nautical Twilight 2:28 AM AKDT 1:23 AM AKDT
Astronomical Twilight Sun does not set Sun does not set
Moon 10:46 PM AKDT (5/14) 5:37 AM AKDT (5/14)
Length of Visible Light 19h 43m
Length of Day
17h 24m
Full, 100% of the Moon is Illuminated
May 14
Full
May 21
Last Quarter
May 28
New
Jun 5
First Quarter
Jun 12
Full

Hourly Weather History & Observations

Time (AKDT) Temp. Windchill Dew Point Humidity Pressure Visibility Wind Dir Wind Speed Gust Speed Precip Events Conditions
12:53 AM 55.9 °F - 23.0 °F 28% 30.25 in 10.0 mi Variable 5.8 mph - N/A   Partly Cloudy
1:53 AM 53.1 °F - 25.0 °F 34% 30.26 in 10.0 mi Calm Calm - N/A   Partly Cloudy
2:53 AM 51.1 °F - 26.1 °F 38% 30.27 in 10.0 mi North 3.5 mph - N/A   Clear
3:53 AM 45.0 °F - 28.0 °F 52% 30.28 in 10.0 mi Calm Calm - N/A   Clear
4:53 AM 44.1 °F 42.5 °F 28.9 °F 55% 30.30 in 10.0 mi ENE 3.5 mph - N/A   Clear
5:53 AM 44.1 °F 42.5 °F 28.0 °F 53% 30.30 in 10.0 mi ENE 3.5 mph - N/A   Clear
6:53 AM 46.9 °F - 28.0 °F 48% 30.31 in 10.0 mi Variable 3.5 mph - N/A   Clear
7:53 AM 51.1 °F - 24.1 °F 35% 30.32 in 10.0 mi North 5.8 mph - N/A   Clear
8:53 AM 54.0 °F - 21.9 °F 29% 30.34 in 10.0 mi North 10.4 mph 19.6 mph N/A   Clear
9:53 AM 55.9 °F - 21.9 °F 27% 30.34 in 10.0 mi NNW 11.5 mph - N/A   Clear
10:53 AM 57.9 °F - 19.9 °F 23% 30.35 in 10.0 mi NNW 10.4 mph 19.6 mph N/A   Clear
11:53 AM 62.1 °F - 19.9 °F 20% 30.35 in 10.0 mi NNW 13.8 mph 19.6 mph N/A   Clear
1:53 PM 66.0 °F - 18.0 °F 16% 30.35 in 10.0 mi North 10.4 mph 19.6 mph N/A   Clear
2:53 PM 68.0 °F - 18.0 °F 15% 30.35 in 10.0 mi NNE 8.1 mph - N/A   Clear
3:53 PM 69.1 °F - 18.0 °F 14% 30.33 in 10.0 mi North 9.2 mph - N/A   Clear
4:53 PM 71.1 °F - 17.1 °F 13% 30.32 in 10.0 mi North 10.4 mph - N/A   Clear
5:53 PM 72.0 °F - 17.1 °F 12% 30.32 in 10.0 mi NW 8.1 mph - N/A   Clear
6:53 PM 72.0 °F - 16.0 °F 12% 30.30 in 10.0 mi North 6.9 mph - N/A   Clear
7:53 PM 66.9 °F - 30.0 °F 25% 30.31 in 10.0 mi NW 4.6 mph - N/A   Clear
8:53 PM 64.9 °F - 24.1 °F 21% 30.32 in 10.0 mi West 5.8 mph - N/A   Clear
9:53 PM 59.0 °F - 30.9 °F 35% 30.34 in 10.0 mi South 4.6 mph - N/A   Clear
10:53 PM 55.9 °F - 28.0 °F 34% 30.36 in 10.0 mi South 3.5 mph - N/A   Clear
11:53 PM 55.9 °F - 27.0 °F 33% 30.37 in 10.0 mi Calm Calm - N/A   Partly Cloudy